FENGYUN 1C DEB

Satellite information

Favourite Embed

Satellite Type and Status

DEBRISIN ORBIT

Key statistics

Satellite FENGYUN 1C DEB at a glance.

Uptime

9616

Days in orbit

Revolutions

≈ 14.1

Per day

Orbit

SSO

Sun Synchronous Orbit

Inclination

98.9

Latest

Satellite identification and parameters

Extended collection of information and parameters for FENGYUN 1C DEB.

Object identification

Identified? True

Debris? True

Object name: FENGYUN 1C DEB

International designator: 1999-025ARF

Object number (NORAD): 30697

Object ID (CCSDS): 30697

Country: PEOPLES REPUBLIC OF CHINA (PRC)

Current information (Y/N): Y

RCS size: SMALL

Orbital parameters

Period: 101.925 minutes

Inclination: 98.9144 deg

SMA: 7227.913 km

Apoapsis: 913.929 km

Periapsis: 785.627 km

RAAN: 304.4379 deg

Eccentricy: 0.00887541

Argument of periapsis: 108.3849 deg

Mean anomaly: 309.6674 deg

Mean motion: 14.12808824 rev/day

Mean motion (dot): 0.00003595 rev/day2

B* drag term: 0.0018859277 1/REarth

Two-line elements (TLE)

Creation date: Sept. 4, 2025, 10:13 a.m.

Reference frame: TEME

Reference center: EARTH

Epoch: Sept. 4, 2025, 3:36 a.m. UTC

TLE line 0: 0 FENGYUN 1C DEB

TLE line 1: 1 30697U 99025ARF 25247.15014427 .00003595 00000-0 18859-2 0 9999

TLE line 2: 2 30697 98.9144 304.4379 0088754 108.3849 309.6674 14.12808824948540

Live tracking on map

Real-time ground track for satellite FENGYUN 1C DEB.

In-orbit conjunctions

A list of the most updated potential collisions computed for object FENGYUN 1C DEB.

Target Orbit TCA Probability of collision Miss distance Type
COSMOS 1275 DEB LEO 2024-10-29 12:44:14 0.0001011765 134.0 (m) DEBRIS

Associated space launch

Chinese polar orbiting meteorological satellite

FENGYUN 1C DEB was lifted into orbit during the mission ‘Long March 4B | Feng Yun 1C’, on board a Long March 4B space rocket.

The launch took place on May 10, 1999, 1:33 a.m. from Launch Complex 7.

For more information about the launch, click the button.

Launch to space Long March 4B | Feng Yun 1C
Long March 4B | Feng Yun 1C

Agency: N/A

Status: Launch Successful

Launch date: May 10, 1999, 1:33 a.m. UTC

Rocket: Long March 4B

Launch pad: Launch Complex 7

Location: Taiyuan Satellite Launch Center, People's Republic of China

...

Latest news about this satellite

There are no fresh news available about this satellite. Check back as we update our databases every day.


Newsletter sign-up

Weekly statistics, charts and insights to help you stay on top of the space industry.